Погода в Матвеевке

Россия / Хабаровский край     48°32′39″N   135°10′57″E
темп.,
°C
ветер,
м/с
пор.,
м/с
влажн.,
%
обл.,
%
осадки,
мм/ч
давл.,
гПа
погр.,
м
10 мая, пн
пн1001:00+5св81486100 0.0 1006715
04:00+4св71382100 0.0 1007739
07:00+4св7138097 0.0 1009713
10:00+7св8116362 0.0 1010909
13:00+10св785163 0.0 10101382
16:00+12св684777 0.0 10101724
19:00+9св565977 0.0 1012845
22:00+5св4107461 0.0 1014367
11 мая, вт
вт1101:00+4ссв4107832 0.0 1014355
04:00+3ссв368537 0.0 1015150
07:00+4ссв387746 0.0 1017355
10:00+9ссв455452 0.0 1017929
13:00+12ссв344565 0.0 10171484
16:00+14сз334364 0.0 10161889
19:00+12сз34595 0.0 1017529
22:00+8з11735 0.0 101811
12 мая, ср
ср1201:00+7ююв227716 0.0 101810
04:00+5юв3582100 0.0 101785
07:00+7юв367232 0.0 1017158
10:00+14ююв5750100 0.0 1014918
13:00+17ю6943100 0.0 10121956
16:00+16ю61149100 0.0 10091694
19:00+10ю61486100 2.3 10091211
22:00+10ю8158199 5.1 1009906
13 мая, чт
чт1301:00+10ю71384100 0.0 1008899
04:00+9ю6138877 0.4 1007731
07:00+9ююз61285100 0.2 1007927
10:00+13зюз7117182 0.4 10071291
13:00+17з914455 0.1 10072082
16:00+20з9143329 0.1 10063457
19:00+18з510418 0.0 1007348
22:00+12з3367100 0.0 100945
14 мая, пт
пт1401:00+11ююв2267100 0.0 100917
04:00+9ю337999 0.0 100940
07:00+11ююз2376100 0.0 1009106
10:00+17юв13525 0.0 1009522
13:00+23ююз453499 0.0 10071927
16:00+22юз7740100 0.0 10052005
19:00+17юз4960100 0.0 1004396
22:00+16ю51460100 0.0 10031140